This is the latest recevied weather packets stored in our database for station/object IZ2MHJ-3. If no packets are shown the sender has not sent any weather packets the latest 10 day(s).
| Time | Temp. | Humidity | Pressure | Rain* | Wind** | Luminosity | Snow |
|---|---|---|---|---|---|---|---|
| 1788447564 | 36.11° C | 34% | 1018.3 hPa | - | - | - | - |
| 1788446363 | 35.56° C | 37% | 1018.3 hPa | - | - | - | - |
| 1788445163 | 37.22° C | 34% | 1018.3 hPa | - | - | - | - |
| 1788443963 | 37.22° C | 34% | 1018.7 hPa | - | - | - | - |
| 1788442762 | 36.67° C | 36% | 1018.8 hPa | - | - | - | - |
| 1788441562 | 38.33° C | 34% | 1018.9 hPa | - | - | - | - |
| 1788440362 | 37.22° C | 36% | 1019.2 hPa | - | - | - | - |
| 1788439161 | 37.22° C | 37% | 1019.3 hPa | - | - | - | - |
| 1788437961 | 35° C | 39% | 1019.7 hPa | - | - | - | - |
| 1788436761 | 36.67° C | 37% | 1019.7 hPa | - | - | - | - |
| 1788435560 | 36.11° C | 38% | 1019.7 hPa | - | - | - | - |
| 1788434360 | 34.44° C | 41% | 1019.8 hPa | - | - | - | - |
| 1788433160 | 35.56° C | 38% | 1020.1 hPa | - | - | - | - |
| 1788431960 | 32.78° C | 42% | 1020.5 hPa | - | - | - | - |
| 1788430759 | 32.78° C | 41% | 1020.8 hPa | - | - | - | - |
| 1788429559 | 31.11° C | 45% | 1020.8 hPa | - | - | - | - |
| 1788428359 | 32.22° C | 44% | 1021 hPa | - | - | - | - |
| 1788427158 | 30° C | 47% | 1021.2 hPa | - | - | - | - |
| 1788425958 | 32.22° C | 43% | 1021 hPa | - | - | - | - |
| 1788424758 | 32.22° C | 44% | 1021 hPa | - | - | - | - |
| 1788423557 | 32.22° C | 42% | 1021 hPa | - | - | - | - |
| 1788422357 | 30.56° C | 45% | 1020.8 hPa | - | - | - | - |
| 1788421157 | 31.67° C | 42% | 1020.6 hPa | - | - | - | - |
| 1788419956 | 28.89° C | 48% | 1020.9 hPa | - | - | - | - |
| 1788418756 | 28.89° C | 48% | 1021 hPa | - | - | - | - |
* Rain since midnight (hover to see other rain measurements)
** Current wind speed in m/s (hover to see current wind gust speed)